Weather reports worldwide

Advertisment
Ramstein, Germany (10614): temperature & dewpoint: 10.09.2019 17:00:00 - 16.09.2019 17:00:00 (CEST)Ramstein, Germany (10614): wind speed: 10.09.2019 17:00:00 - 16.09.2019 17:00:00 (CEST)Ramstein, Germany (10614): wind direction: 10.09.2019 17:00:00 - 16.09.2019 17:00:00 (CEST)Ramstein, Germany (10614): reduced air pressure: 10.09.2019 17:00:00 - 16.09.2019 17:00:00 (CEST)Ramstein, Germany (10614): visibility: 10.09.2019 17:00:00 - 16.09.2019 17:00:00 (CEST)Ramstein, Germany (10614): precipitation: 10.09.2019 17:00:00 - 16.09.2019 17:00:00 (CEST)
Date & Time tt [°C] td [°C] ff [km/h] ff [kn] dd ppp [hPa] vv [km] rr [mm]
16.09.2019 17:00:00 24,8 9,1 18 10 W 1018,2 10 -
16.09.2019 16:00:00 26,3 10,8 13 7 WSW 1018,5 10 -
16.09.2019 15:00:00 24,7 9,4 13 7 WSW 1019,3 10 -
16.09.2019 14:00:00 24,0 10,3 15 8 WSW 1019,6 10 -
16.09.2019 13:00:00 23,4 10,4 15 8 W 1019,9 10 -
16.09.2019 12:00:00 20,6 10,4 0 0 N 1020,6 10 -
16.09.2019 11:00:00 17,3 9,9 0 0 N 1020,8 10 -
16.09.2019 10:00:00 14,5 9,5 0 0 N 1021,1 10 -
16.09.2019 09:00:00 10,7 8,6 0 0 N 1021,7 10 -
16.09.2019 08:00:00 7,4 6,8 0 0 N 1021,3 10 -
16.09.2019 07:00:00 7,2 7,1 0 0 N 1020,9 10 -
16.09.2019 06:00:00 6,2 5,9 0 0 N 1020,9 10 -
16.09.2019 05:00:00 6,1 5,8 0 0 N 1021,2 10 -
16.09.2019 04:00:00 8,0 7,9 0 0 N 1021,1 10 -
16.09.2019 03:00:00 7,3 6,9 0 0 N 1021,5 10 -
16.09.2019 02:00:00 8,5 8,0 0 0 N 1021,9 10 -
16.09.2019 01:00:00 9,3 8,2 0 0 N 1021,9 10 -
16.09.2019 00:00:00 11,2 9,5 0 0 N 1022,2 10 -
15.09.2019 23:00:00 11,8 10,4 0 0 N 1022,0 10 -
15.09.2019 22:00:00 14,2 11,0 0 0 N 1022,1 10 -
15.09.2019 21:00:00 13,6 11,5 0 0 N 1021,9 10 -
15.09.2019 20:00:00 18,6 12,8 5 3 SSW 1021,6 10 -
15.09.2019 19:00:00 26,1 11,4 5 3 SW 1021,0 10 -
15.09.2019 18:00:00 27,2 10,0 11 6 SW 1021,2 10 -
15.09.2019 17:00:00 27,5 9,8 11 6 W 1021,4 10 -
15.09.2019 16:00:00 27,1 11,9 8 4 SW 1022,1 10 -
15.09.2019 15:00:00 26,4 11,3 15 8 SW 1022,8 10 -
15.09.2019 14:00:00 25,6 12,4 16 9 WSW 1023,6 10 -
15.09.2019 13:00:00 24,4 12,7 0 0 N 1024,3 10 -
15.09.2019 12:00:00 22,4 12,9 0 0 N 1024,7 10 -
15.09.2019 11:00:00 19,3 11,1 0 0 N 1025,1 10 -
15.09.2019 10:00:00 15,5 10,9 0 0 N 1025,6 10 -
15.09.2019 09:00:00 11,6 9,8 0 0 N 1025,7 10 -
15.09.2019 08:00:00 6,7 6,6 0 0 N 1026,0 10 -
15.09.2019 07:00:00 6,6 6,5 0 0 N 1025,6 8 -
15.09.2019 06:00:00 7,2 7,1 0 0 N 1025,5 10 -
15.09.2019 05:00:00 7,7 7,6 0 0 N 1025,7 10 -
15.09.2019 04:00:00 8,2 8,2 0 0 N 1026,1 10 -
15.09.2019 03:00:00 9,5 9,5 0 0 N 1026,4 10 -
15.09.2019 02:00:00 8,8 8,8 0 0 N 1027,1 10 -
15.09.2019 01:00:00 10,5 10,0 0 0 N 1027,1 10 -
15.09.2019 00:00:00 10,1 9,9 0 0 N 1027,5 10 -
14.09.2019 23:00:00 11,4 10,8 0 0 N 1028,3 10 -
14.09.2019 22:00:00 11,3 10,7 0 0 N 1028,8 10 -
14.09.2019 21:00:00 13,1 11,5 0 0 N 1028,8 10 -
14.09.2019 20:00:00 19,0 12,3 8 4 NE 1028,2 10 -
14.09.2019 19:00:00 22,0 12,5 13 7 NE 1028,1 10 -
14.09.2019 18:00:00 23,3 12,9 15 8 NE 1028,0 10 -
14.09.2019 17:00:00 23,9 13,4 13 7 N 1028,3 10 -
14.09.2019 16:00:00 24,2 13,4 16 9 NNE 1028,9 10 0,0
14.09.2019 15:00:00 22,5 13,3 18 10 NE 1029,4 10 0,0
14.09.2019 14:00:00 22,6 13,4 11 6 NNE 1029,9 10 0,0
14.09.2019 13:00:00 21,9 13,2 11 6 E 1030,8 10 -
14.09.2019 12:00:00 19,9 13,1 5 3 ESE 1031,5 10 -
14.09.2019 11:00:00 17,8 12,5 0 0 N 1032,0 10 -
14.09.2019 10:00:00 15,5 11,9 5 3 E 1032,3 10 -
14.09.2019 09:00:00 13,3 12,8 5 3 E 1032,7 10 -
14.09.2019 08:00:00 10,6 10,6 0 0 N 1032,6 10 -
14.09.2019 07:00:00 9,7 9,7 5 3 ESE 1031,9 8 -
14.09.2019 06:00:00 10,4 10,4 5 3 E 1031,9 10 -
14.09.2019 05:00:00 10,9 10,9 8 4 E 1031,9 10 -
14.09.2019 04:00:00 11,8 11,8 0 0 N 1032,1 10 -
14.09.2019 03:00:00 11,5 11,5 0 0 N 1032,4 10 -
14.09.2019 02:00:00 - - - - - - - -
14.09.2019 01:00:00 10,9 10,9 5 3 E 1032,5 10 -
14.09.2019 00:00:00 12,6 12,6 0 0 N 1032,4 10 -
13.09.2019 23:00:00 12,7 12,7 0 0 N 1032,5 10 -
13.09.2019 22:00:00 13,7 13,5 0 0 N 1032,3 10 -
13.09.2019 21:00:00 14,9 14,4 0 0 N 1032,4 10 -
13.09.2019 20:00:00 18,9 14,6 0 0 N 1031,6 10 -
13.09.2019 19:00:00 21,6 14,2 0 0 N 1031,5 10 -
13.09.2019 18:00:00 21,9 14,5 0 0 N 1031,5 10 -
13.09.2019 17:00:00 21,9 14,5 0 0 N 1031,9 10 -
13.09.2019 16:00:00 22,8 14,9 0 0 N 1031,8 10 -
13.09.2019 15:00:00 21,8 14,9 5 3 W 1032,2 10 -
13.09.2019 14:00:00 20,8 14,7 5 3 WNW 1032,6 10 -
13.09.2019 13:00:00 20,1 14,4 9 5 NW 1032,6 10 -
13.09.2019 12:00:00 20,2 14,5 9 5 SW 1032,5 10 -
13.09.2019 11:00:00 19,5 14,9 9 5 W 1032,9 10 -
13.09.2019 10:00:00 15,7 14,1 0 0 N 1032,6 10 -
13.09.2019 09:00:00 13,3 13,3 0 0 N 1032,1 10 -
13.09.2019 08:00:00 11,3 11,3 0 0 N 1031,9 10 -
13.09.2019 07:00:00 9,7 9,7 0 0 N 1031,9 10 -
13.09.2019 06:00:00 10,0 10,0 0 0 N 1031,2 10 -
13.09.2019 05:00:00 9,7 9,7 0 0 N 1031,1 10 -
13.09.2019 04:00:00 9,3 9,3 0 0 N 1030,8 10 -
13.09.2019 03:00:00 10,5 10,5 0 0 N 1031,2 10 -
13.09.2019 02:00:00 9,8 9,8 0 0 N 1030,8 8 -
13.09.2019 01:00:00 10,7 10,7 0 0 N 1030,8 10 -
13.09.2019 00:00:00 11,1 11,1 0 0 N 1030,8 10 -
12.09.2019 23:00:00 11,8 11,8 0 0 N 1030,9 10 -
12.09.2019 22:00:00 13,9 13,7 0 0 N 1030,8 10 -
12.09.2019 21:00:00 15,6 14,5 0 0 N 1030,9 10 -
12.09.2019 20:00:00 20,3 15,1 0 0 N 1029,9 10 -
12.09.2019 19:00:00 22,8 15,4 8 4 SSW 1029,8 10 -
12.09.2019 18:00:00 22,3 14,9 15 8 W 1029,6 10 -
12.09.2019 17:00:00 23,4 14,9 13 7 W 1029,8 10 -
12.09.2019 16:00:00 22,7 15,0 18 10 W 1030,2 10 -
12.09.2019 15:00:00 21,6 15,2 21 11 W 1030,5 10 -
12.09.2019 14:00:00 21,1 14,9 21 11 WSW 1030,6 10 -
12.09.2019 13:00:00 20,6 14,2 15 8 WSW 1030,5 10 -
12.09.2019 12:00:00 20,4 14,1 18 10 W 1030,5 10 -
12.09.2019 11:00:00 18,0 13,9 13 7 W 1030,3 10 -
12.09.2019 10:00:00 17,0 13,5 8 4 WNW 1029,6 10 -
12.09.2019 09:00:00 14,7 13,6 0 0 N 1029,4 8 -
12.09.2019 08:00:00 15,6 11,6 8 4 W 1028,7 10 -
12.09.2019 07:00:00 15,2 10,0 5 3 W 1028,0 10 -
12.09.2019 06:00:00 14,6 9,8 15 8 W 1027,7 10 -
12.09.2019 05:00:00 14,5 10,1 5 3 WSW 1027,7 10 -
12.09.2019 04:00:00 14,9 10,1 5 3 NE 1027,2 10 -
12.09.2019 03:00:00 15,5 9,6 8 4 W 1026,9 10 -
12.09.2019 02:00:00 14,5 10,9 5 3 E 1026,9 10 -
12.09.2019 01:00:00 16,3 9,5 0 0 N 1026,5 10 -
12.09.2019 00:00:00 17,7 8,8 8 4 SW 1026,1 10 -
11.09.2019 23:00:00 18,1 8,9 8 4 SSW 1026,3 10 -
11.09.2019 22:00:00 18,2 8,7 8 4 SW 1026,2 10 -
11.09.2019 21:00:00 17,9 9,0 8 4 SW 1026,0 10 -
11.09.2019 20:00:00 18,4 9,2 8 4 SW 1025,2 10 -
11.09.2019 19:00:00 19,1 8,4 0 0 N 1025,2 10 -
11.09.2019 18:00:00 19,5 8,2 8 4 SW 1024,9 10 -
11.09.2019 17:00:00 19,7 8,1 13 7 SW 1024,9 10 -
11.09.2019 16:00:00 20,6 7,9 16 9 WSW 1024,4 10 -
11.09.2019 15:00:00 20,8 7,1 18 10 WSW 1024,4 10 -
11.09.2019 14:00:00 20,9 7,1 21 11 W 1024,0 10 -
11.09.2019 13:00:00 20,6 6,5 13 7 W 1024,0 10 -
11.09.2019 12:00:00 20,0 8,6 8 4 SW 1024,3 10 -
11.09.2019 11:00:00 16,3 8,3 0 0 N 1024,4 10 -
11.09.2019 10:00:00 12,4 7,9 0 0 N 1024,7 10 -
11.09.2019 09:00:00 8,4 6,2 0 0 N 1024,4 10 -
11.09.2019 08:00:00 3,4 3,3 0 0 N 1024,1 10 -
11.09.2019 07:00:00 2,1 1,8 0 0 N 1023,5 10 -
11.09.2019 06:00:00 2,4 2,1 0 0 N 1022,8 10 -
11.09.2019 05:00:00 2,6 2,3 0 0 N 1022,5 10 -
11.09.2019 04:00:00 3,4 3,3 0 0 N 1022,1 10 -
11.09.2019 03:00:00 4,4 4,0 0 0 N 1022,1 10 -
11.09.2019 02:00:00 6,0 5,9 0 0 N 1021,7 10 -
11.09.2019 01:00:00 5,8 5,5 0 0 N 1021,6 10 -
11.09.2019 00:00:00 5,9 5,3 0 0 N 1021,4 10 -
10.09.2019 23:00:00 6,7 6,3 0 0 N 1021,1 10 -
10.09.2019 22:00:00 8,5 7,9 0 0 N 1020,9 10 -
10.09.2019 21:00:00 10,4 8,0 0 0 N 1020,3 10 -
10.09.2019 20:00:00 15,1 8,8 0 0 N 1019,7 10 -
10.09.2019 19:00:00 19,4 5,4 8 4 NE 1018,8 10 -
10.09.2019 18:00:00 20,1 5,3 8 4 NNE 1018,3 10 -
10.09.2019 17:00:00 19,7 6,1 11 6 N 1018,4 10 -

tt = temperature
td = dewpoint
ff = wind speed
dd = wind direction
ppp = reduced air pressure
vv = visibility
rr = precipitation

Next stations